Location: Isles
(48.9125°N, 2.8272°E)
Time: 12:30:35
(UTC+00:00)

Cosmos 1553 Rocket - Pass Details

Date: 03 February 2023
Orbit: 942 x 1007 km, 82.9° (Epoch: 25 March)

Event Time Altitude Azimuth Distance (km) Brightness Sun altitude
Rises 17:53:53 0° 162° (SSE) 3,597 6.9 -10.9°
Reaches altitude 10° 17:56:29 10° 155° (SSE) 2,661 6.2 -11.3°
Maximum altitude 18:02:05 40° 88° (E) 1,375 4.3 -12.2°
Drops below altitude 10° 18:07:45 10° 22° (NNE) 2,709 6.0 -13.2°
Sets 18:10:25 0° 15° (NNE) 3,669 6.8 -13.6°
